Content
SEND FEEDBACK

Daily
Averages
Monthly
Summary
United States of America

UPI, GUAM


Home > North America > United States > Guam
Elevation: 53 feet     Latitude: 13 34N     Longitude: 144 55E

WEATHER
 
SELECT A DAY
Number of Records: 209,106;   Date Range: 1/1/95 - 8/12/14
 
SHARE

PRINT THIS DATA

[ ← Previous Day ]
WEATHER ALMANAC - JUNE 7, 2014
[ Next Day → ]
[ °C ]   °F
Weather ElementAverageHighLow
Temperature84.3 °F89.1 °F (11:54 am)77 °F (2:54 am)
Dewpoint75 °F75.9 °F (6:54 am)73 °F (2:54 am)
Humidity74.1 %88 % (2:54 am)61 % (2:54 pm)
Barometer29.74 in29.78 in (8:54 pm)29.70 in (2:54 pm)
Wind Speed5.8 mph10.4 mph (12:54 pm)
Weather ElementAverage
Visibility10 mi
Wind DirectionENE (77.4 °)

Weather ElementTotal
Precipitation---
Cooling Degree Days18.1 (Base 65)
Growing Degree Days33.1 (Base 50)
Averaged from 23 records on June 7, 2014
WEATHER CONDITIONS BREAKOUT
WIND DIRECTION BREAKOUT
WEATHER BY HOUR - JUNE 7, 2014
[ °C ]   °F
Local TimeTemperatureDewpointHumidityBarometerVisibilityWind DirectionWind SpeedGust SpeedPrecipitationEventsConditions
1:54 AM81.0 °F75.0 °F82 %29.73 in10.0 miENE (70°)3.5 mphClear
2:54 AM77.0 °F73.0 °F88 %29.73 in10.0 miCalmClear
3:54 AM79.0 °F73.9 °F84 %29.74 in10.0 miCalmClear
4:54 AM80.1 °F75.0 °F85 %29.75 in10.0 miENE (60°)4.6 mphClear
5:54 AM80.1 °F75.0 °F85 %29.75 in10.0 miENE (70°)3.5 mphClear
6:54 AM82.9 °F75.9 °F79 %29.77 in10.0 miCalmClear
7:54 AM84.0 °F75.0 °F74 %29.76 in10.0 miEast (90°)4.6 mphClear
8:54 AM86.0 °F75.0 °F70 %29.76 in10.0 miENE (60°)8.1 mphPartly Cloudy
9:54 AM87.1 °F75.9 °F69 %29.76 in10.0 miESE (110°)8.1 mphPartly Cloudy
10:54 AM88.0 °F73.9 °F63 %29.75 in10.0 miEast (100°)9.2 mphPartly Cloudy
11:54 AM89.1 °F75.0 °F63 %29.74 in10.0 miESE (120°)8.1 mphPartly Cloudy
12:54 PM89.1 °F75.0 °F63 %29.73 in10.0 miESE (110°)10.4 mphPartly Cloudy
1:54 PM89.1 °F75.0 °F63 %29.71 in10.0 miEast (100°)10.4 mphClear
2:54 PM89.1 °F73.9 °F61 %29.70 in10.0 miSE (130°)8.1 mphPartly Cloudy
3:54 PM87.1 °F75.0 °F67 %29.70 in10.0 miESE (110°)10.4 mphPartly Cloudy
4:54 PM86.0 °F75.0 °F70 %29.70 in10.0 miEast (90°)10.4 mphPartly Cloudy
5:54 PM86.0 °F75.9 °F72 %29.72 in10.0 miEast (100°)6.9 mphPartly Cloudy
6:54 PM84.0 °F75.0 °F74 %29.74 in10.0 miESE (110°)6.9 mphPartly Cloudy
7:54 PM84.0 °F75.9 °F76 %29.76 in10.0 miEast (80°)6.9 mphPartly Cloudy
8:54 PM82.9 °F75.0 °F77 %29.78 in10.0 miEast (90°)5.8 mphPartly Cloudy
9:54 PM82.9 °F75.9 °F79 %29.78 in10.0 miEast (90°)3.5 mphPartly Cloudy
10:54 PM82.0 °F75.9 °F82 %29.78 in10.0 miCalmPartly Cloudy
11:54 PM82.9 °F75.9 °F79 %29.77 in10.0 miEast (90°)4.6 mphPartly Cloudy
Hourly data recorded from PGUM, located miles away from Upi, Guam







STORIES FROM OUR PARTNERS